Theta_e
315 314 315 314 314 314 312 312 311 309 307 305 304 302 302 301 301 300 301 300 300 300 300 300 300 300 300 301 301 300 300 300 300 300 301 303 306 305 306 310 313 316 318 320 321 321 321 321 321 321 321 320 318 318 319 319 318 319 319 319 319 319 318 318 318 318 318 318 318 318 319 319 320 320 321 321 321 321 322 323 323 324 324 324 325
313 313 312 312 311 311 310 310 308 306 304 303 302 301 301 301 301 301 301 300 299 299 299 299 299 299 300 300 300 299 300 299 300 299 300 301 304 304 302 306 310 313 315 317 318 319 320 320 320 321 320 319 318 318 318 317 318 318 318 318 318 318 317 317 317 317 317 317 317 317 318 318 318 319 319 320 320 321 321 321 322 322 322 323 323
312 311 310 310 309 309 308 308 306 304 303 302 302 302 301 300 301 299 299 299 299 298 298 299 299 299 299 300 299 299 299 299 299 300 300 300 301 302 302 303 306 310 312 313 315 316 318 319 319 319 319 318 318 318 317 317 317 317 318 318 318 317 316 316 316 316 316 316 316 317 317 317 317 318 318 319 319 319 319 320 320 321 322 322 322
311 310 309 309 307 306 307 305 305 303 302 302 301 302 301 302 302 301 301 300 299 298 299 298 298 298 298 299 299 298 298 299 299 299 299 300 299 300 300 301 302 305 308 311 313 314 315 315 316 316 316 317 317 317 317 316 316 317 317 316 316 317 316 315 316 315 315 315 316 316 316 317 317 318 317 317 318 318 318 318 319 319 319 320 320
309 309 308 308 306 305 304 304 304 302 301 302 302 301 300 299 299 299 299 299 298 298 299 298 298 297 298 298 298 298 298 299 299 298 298 299 298 298 299 299 300 302 304 307 309 310 311 311 311 313 314 315 316 316 315 314 316 316 316 315 316 315 315 315 314 314 315 315 315 315 316 316 316 316 316 316 316 316 316 316 317 317 318 318 319
308 308 307 306 305 304 303 303 302 302 301 301 299 299 298 298 297 296 297 297 297 297 295 296 297 297 297 298 298 298 298 298 298 298 298 298 298 298 297 298 298 300 303 302 304 306 307 308 309 310 311 312 314 314 314 314 314 315 314 314 315 314 314 314 313 313 314 314 314 314 315 315 315 315 315 314 315 315 315 315 315 316 317 317 317
307 306 305 305 304 303 302 301 301 301 299 299 299 299 299 298 296 296 296 296 297 297 297 297 297 296 297 296 297 297 298 298 298 298 297 298 297 298 298 297 297 298 299 300 300 301 303 304 306 307 309 310 311 312 312 312 313 313 313 313 313 313 313 313 312 313 313 314 314 314 314 314 313 314 314 314 314 314 314 314 315 315 315 316 316
305 305 304 304 303 302 301 300 301 299 299 299 299 298 298 298 297 298 295 296 296 296 297 297 297 298 297 297 297 296 297 297 297 297 297 296 297 297 297 297 298 297 297 297 298 299 299 300 302 304 305 306 308 309 310 311 312 312 312 312 312 312 311 312 311 312 312 312 312 313 313 313 312 313 312 313 313 313 314 314 314 314 314 314 315
304 304 303 303 302 302 300 301 300 299 299 298 298 298 298 298 297 298 297 295 295 296 296 297 297 297 296 297 297 296 297 297 297 297 298 297 296 296 297 297 297 297 296 296 296 296 296 296 297 299 301 303 305 306 307 308 311 312 312 311 311 311 310 310 311 311 311 311 311 311 311 311 311 311 312 312 313 313 312 312 313 313 313 313 314
303 303 303 303 302 302 301 300 299 298 298 298 297 298 298 298 296 296 297 297 295 296 295 296 297 296 295 296 296 295 296 297 297 295 295 296 296 296 296 296 296 296 296 297 296 295 295 294 293 295 296 299 302 304 304 305 308 310 311 311 311 311 310 310 310 310 309 310 310 310 310 310 310 311 311 311 311 311 311 312 313 313 313 313 313
303 302 301 301 301 301 300 299 298 298 298 297 298 297 298 297 296 295 296 297 296 296 295 296 296 296 295 295 295 296 296 296 296 295 296 296 296 296 297 296 296 296 296 296 295 295 295 295 295 295 294 294 298 300 301 302 305 307 309 310 310 310 310 310 309 309 308 308 309 309 309 309 309 310 310 310 310 311 311 311 312 312 313 313 313
302 302 301 300 300 300 300 299 297 298 297 297 297 296 296 297 296 295 294 294 296 297 297 295 295 294 293 293 294 294 295 294 295 296 296 296 295 294 295 295 295 296 295 295 295 295 295 295 294 294 294 293 293 296 297 298 300 303 306 309 310 310 310 309 308 308 308 308 308 308 308 308 308 308 308 308 309 309 310 310 311 311 311 312 312
301 301 300 299 300 300 299 298 297 297 297 297 298 297 297 297 296 296 294 293 293 295 296 296 293 292 293 293 292 294 293 293 293 294 294 294 295 294 294 294 295 295 295 295 295 295 295 295 294 294 294 295 293 291 293 294 296 300 304 307 309 309 308 308 308 307 306 307 307 307 307 307 307 307 307 308 308 308 309 309 310 311 311 311 311
301 301 300 300 299 299 298 297 296 296 297 298 298 297 297 296 296 294 295 293 293 294 295 294 292 291 290 290 291 291 292 292 291 292 294 294 294 295 294 294 294 294 294 294 294 294 294 294 294 294 294 293 294 294 294 294 294 295 301 306 307 308 308 308 307 306 306 306 306 306 306 306 306 307 307 307 307 308 308 308 309 309 310 310 310
301 300 299 300 299 298 298 297 296 296 296 297 297 297 296 296 295 293 292 294 294 295 294 295 292 293 294 292 289 289 291 290 292 292 292 293 293 294 294 294 295 294 294 294 293 293 294 294 293 293 293 293 293 293 293 293 291 291 294 298 302 305 307 307 306 306 305 305 305 305 305 305 306 306 306 307 307 307 308 308 308 309 309 310 310
301 300 299 300 299 298 298 297 296 296 296 295 296 296 296 295 295 295 294 291 293 293 294 295 298 295 290 291 293 292 290 289 289 291 292 292 292 293 293 294 294 294 293 293 293 293 293 293 293 293 292 292 293 293 294 293 290 290 290 292 297 301 305 305 305 305 304 304 304 304 304 304 304 305 305 306 306 306 307 307 307 307 309 309 310
301 300 299 299 299 298 297 297 296 296 296 296 295 295 296 296 295 294 294 292 291 292 292 294 295 298 296 292 289 289 292 295 291 290 292 290 291 293 293 293 293 292 292 293 293 293 293 292 293 292 292 292 292 293 293 292 293 292 293 293 296 296 298 302 304 303 303 303 303 303 303 304 304 304 305 305 305 306 306 307 307 307 308 309 309
300 300 299 298 298 298 298 297 297 296 296 296 296 296 296 295 295 295 294 295 293 293 291 292 294 295 294 298 299 293 294 294 292 289 291 291 292 292 292 292 293 292 292 293 292 292 292 292 292 292 291 292 292 292 293 292 292 293 294 296 297 297 297 297 300 301 301 302 302 302 303 303 303 303 303 304 305 305 305 306 306 307 307 308 308
300 300 299 298 298 298 298 297 297 296 296 296 295 295 296 296 295 295 295 295 295 293 292 290 291 292 294 294 295 292 297 293 291 294 287 290 290 291 291 292 292 292 292 292 292 292 292 292 292 292 291 291 291 292 292 292 291 291 289 292 296 297 296 295 296 297 298 299 301 302 302 303 302 303 303 303 304 304 304 305 306 306 307 307 307
299 299 299 299 298 298 298 297 297 296 295 295 295 296 296 296 295 295 296 295 295 294 293 292 288 289 291 291 291 293 294 296 302 296 295 290 288 290 291 291 291 291 292 292 292 291 292 291 291 291 290 291 291 291 292 292 292 291 290 292 295 296 295 294 294 294 294 296 298 301 301 301 301 302 302 302 303 304 304 304 305 306 306 307 307
298 299 299 298 298 298 298 297 296 296 295 295 296 296 296 295 294 294 294 293 294 295 295 293 291 291 291 290 292 291 293 295 295 296 295 293 292 289 288 290 290 290 291 292 292 292 291 291 291 291 291 291 291 291 291 292 291 292 290 291 293 295 294 293 294 293 293 293 296 298 299 300 300 301 301 301 302 303 303 304 305 305 305 306 306
297 298 298 298 298 297 297 297 296 296 294 295 296 296 296 296 295 294 294 294 294 294 295 295 294 294 293 292 291 291 291 290 291 293 294 297 294 291 292 288 286 289 291 290 291 291 291 290 290 290 290 291 291 291 291 291 291 292 290 289 291 291 291 292 292 292 292 293 294 295 296 298 298 299 299 301 302 302 303 303 304 304 305 305 306
296 296 297 297 297 297 297 296 296 296 294 295 295 295 295 295 295 295 294 294 293 293 294 296 295 294 295 293 292 292 291 290 290 292 292 291 291 293 294 292 291 290 290 292 291 290 290 290 290 290 290 290 290 290 291 291 290 290 288 289 289 290 290 292 292 291 291 293 294 294 294 295 296 297 298 300 301 302 302 303 303 303 304 304 305
296 295 296 296 296 296 296 296 295 295 294 294 295 295 295 294 294 293 293 294 294 293 293 294 295 294 296 294 294 294 294 294 295 294 293 293 293 292 292 292 291 292 290 289 290 290 290 290 290 290 290 290 290 290 290 290 289 288 289 288 289 289 291 291 290 290 291 292 292 293 294 294 295 295 296 298 299 301 302 302 302 302 303 304 304
294 294 295 296 296 295 295 295 294 294 294 294 294 295 294 294 293 293 293 293 292 293 292 292 294 292 293 294 295 295 294 296 297 295 295 296 295 292 293 291 289 289 289 288 288 288 289 289 290 290 290 290 290 290 290 290 290 287 288 288 288 289 287 287 288 289 290 291 291 292 293 293 294 294 295 297 298 299 300 300 301 302 302 303 303
295 294 295 295 295 295 295 295 295 295 294 294 294 294 294 293 293 292 292 293 293 293 292 293 293 294 294 293 293 293 294 296 297 297 295 294 293 293 291 289 290 291 288 287 289 286 288 288 290 290 289 289 289 290 290 290 290 287 287 289 288 286 286 287 288 289 290 290 291 292 292 292 293 293 294 295 296 297 298 299 300 300 301 302 302
296 296 295 295 295 295 295 295 294 294 294 294 294 294 294 293 292 292 292 292 292 292 292 292 292 293 293 292 293 293 293 295 296 295 296 295 295 294 292 287 285 287 286 287 287 287 289 286 289 288 289 289 289 289 289 289 289 287 287 288 289 285 285 286 288 289 289 290 291 291 291 291 292 293 293 293 294 294 296 297 298 299 299 299 299
297 296 296 295 295 294 294 294 294 294 294 294 293 293 293 292 291 291 291 292 291 291 291 292 292 293 293 293 292 292 293 294 294 294 295 295 295 295 293 292 289 285 286 285 286 286 290 286 287 288 288 288 288 289 289 288 288 287 285 288 288 287 285 285 287 288 289 290 290 291 291 291 291 291 292 292 292 292 293 294 295 295 295 296 296
297 296 296 295 295 294 294 293 294 293 293 293 292 292 292 291 290 290 290 291 290 290 290 290 290 292 291 292 291 291 292 293 292 292 294 294 295 295 294 292 292 289 286 284 286 286 288 288 285 286 288 288 288 288 287 287 288 287 287 287 287 286 285 284 285 287 288 289 289 290 290 290 290 291 291 291 291 292 293 294 295 295 295 296 296
296 297 296 295 294 293 293 293 293 293 292 292 292 291 291 291 290 290 290 291 290 290 290 290 290 291 291 291 291 290 291 291 291 291 291 292 292 293 293 293 293 290 290 287 287 288 288 288 288 287 286 286 287 287 287 287 287 286 287 287 286 286 284 283 284 286 287 288 288 289 289 290 290 290 290 291 291 292 293 294 294 294 295 295 296
295 295 295 294 294 293 293 292 292 292 292 291 291 291 291 290 290 289 289 289 289 288 289 289 289 290 289 289 290 289 290 290 290 290 290 290 291 292 291 292 292 293 291 290 287 289 288 285 286 287 285 286 287 286 287 287 285 284 285 285 285 284 282 283 283 285 286 286 287 287 288 289 289 290 290 290 291 292 293 293 293 294 294 294 295
295 295 294 293 293 293 292 292 291 291 291 291 290 290 290 289 289 289 288 288 287 287 288 288 288 288 288 287 288 288 289 289 289 289 288 289 290 290 290 290 290 291 291 290 287 286 286 286 286 286 286 285 286 285 285 285 285 283 284 284 284 282 283 284 283 284 285 285 286 287 288 289 289 289 290 290 291 291 292 292 292 293 293 294 294
294 294 293 293 293 293 292 291 291 291 290 290 290 289 288 288 288 288 288 287 286 286 286 286 287 287 287 286 286 287 288 287 287 287 287 288 288 288 289 288 288 287 288 287 285 285 282 284 285 284 285 285 283 284 284 284 284 283 283 284 284 283 284 284 284 284 284 285 286 287 287 288 289 290 290 290 290 291 291 292 292 292 292 293 293
294 293 293 293 293 292 291 291 291 291 290 290 289 288 287 287 286 287 286 285 285 285 285 285 285 285 285 284 284 285 286 285 286 286 286 286 286 286 286 286 285 285 286 285 285 285 282 281 282 283 282 284 281 283 282 283 283 283 282 283 283 283 283 284 284 285 284 284 285 286 287 288 289 290 290 289 290 290 291 291 291 291 291 292 292
293 293 292 292 292 291 291 290 290 290 290 289 289 288 287 286 286 285 285 285 284 284 283 284 284 284 283 283 283 284 284 283 284 284 284 284 285 285 285 285 284 284 285 286 285 284 284 281 281 280 281 281 281 282 282 283 283 282 281 282 282 283 283 283 283 284 284 285 285 286 287 288 288 288 289 289 289 289 290 290 290 290 290 290 291
292 292 292 292 291 290 290 289 289 289 289 288 288 287 287 286 285 285 284 284 284 283 283 283 284 283 282 282 282 283 283 282 283 284 284 283 282 283 283 283 284 284 284 284 285 285 284 281 280 280 281 279 280 282 281 281 280 280 281 282 282 282 283 283 283 284 284 285 285 286 287 287 287 288 288 288 288 289 289 289 289 289 290 290 290
291 291 290 291 290 290 289 289 288 288 288 288 287 287 287 286 285 284 284 284 283 283 283 283 283 282 282 282 282 283 282 282 282 283 283 282 282 282 282 282 282 282 282 282 282 283 282 281 279 279 280 280 280 280 280 279 279 279 280 280 281 282 282 283 284 284 284 284 285 285 285 285 286 286 287 287 288 288 288 289 289 289 289 289 289
290 289 289 289 289 289 289 289 289 289 289 288 287 287 286 286 285 284 284 284 283 283 283 283 283 283 282 282 283 283 283 282 282 282 282 282 282 281 281 281 281 281 280 280 281 281 281 280 279 277 278 278 278 278 279 279 278 279 280 281 281 281 281 281 283 284 284 284 284 285 284 284 285 285 286 286 287 287 288 288 288 288 288 288 288
289 289 288 288 288 288 288 288 288 288 288 288 288 287 286 286 285 285 284 284 284 284 283 283 283 283 283 283 283 283 283 282 282 282 282 281 281 281 281 281 280 280 280 280 280 279 279 279 279 278 277 278 278 277 279 279 279 280 279 280 280 282 282 282 282 283 284 284 284 284 284 284 284 285 285 286 286 287 287 287 287 288 287 287 287
287 287 287 287 287 287 288 288 288 288 288 288 288 288 287 286 285 285 284 284 284 284 284 284 284 284 283 283 283 283 283 283 283 282 281 281 281 281 281 281 280 280 279 279 279 279 278 279 278 277 277 277 277 278 279 279 278 279 280 280 279 281 282 283 282 282 283 283 283 283 284 284 284 285 285 285 286 287 287 286 286 286 285 286 286
286 287 287 287 286 286 286 286 287 287 287 287 288 288 287 285 285 284 285 285 285 284 284 284 284 284 284 284 284 284 284 283 284 284 283 283 281 280 281 281 280 280 279 279 279 279 279 278 278 277 276 276 277 277 277 278 278 279 281 280 279 281 282 281 282 283 282 282 282 283 283 284 283 283 284 283 284 284 284 284 284 284 284 285 285
286 286 286 286 286 286 285 285 286 286 287 288 287 287 288 286 285 285 285 285 285 285 285 284 284 284 284 284 285 284 283 283 283 284 285 284 284 283 282 281 280 280 280 279 278 279 278 278 277 277 276 276 277 278 278 279 280 281 281 280 279 280 280 280 281 282 283 282 281 281 282 284 283 282 283 282 283 283 283 283 283 283 283 284 285
285 285 285 285 286 286 285 285 285 286 286 287 287 289 289 289 286 285 285 284 285 285 285 284 284 284 284 284 284 284 284 283 284 284 285 285 284 284 284 283 283 281 280 279 278 279 278 278 278 277 277 276 277 279 279 280 281 280 280 280 280 280 279 278 277 281 284 282 281 280 281 283 283 281 282 282 282 282 283 282 284 284 284 285 285
285 286 285 285 285 285 285 285 285 285 285 286 288 288 289 289 288 286 285 285 285 285 285 284 284 284 283 283 283 284 283 283 283 283 284 284 284 284 284 284 283 284 284 281 279 278 278 278 277 277 278 277 278 279 279 280 280 280 280 280 280 279 278 277 278 278 283 283 280 279 279 282 282 280 280 280 281 282 282 283 284 284 284 284 284
285 285 285 285 285 285 285 284 284 285 285 286 288 288 288 289 289 288 286 285 285 285 285 284 284 284 284 283 282 282 283 283 282 282 282 283 284 284 284 283 283 284 284 284 284 281 280 279 278 278 278 279 278 279 280 280 281 279 280 278 279 278 278 277 278 279 281 283 281 278 277 279 280 279 278 280 281 281 281 283 284 284 284 284 284
284 284 285 285 285 285 285 284 284 284 284 286 287 288 288 288 289 289 286 285 285 285 285 285 284 284 284 283 282 281 282 282 282 281 281 282 282 282 282 282 281 282 283 284 283 282 281 280 280 278 279 280 278 279 281 281 279 278 279 278 279 278 278 278 279 280 281 283 279 278 275 277 278 277 277 279 280 280 280 281 283 283 283 284 283
284 284 284 284 284 284 284 284 284 283 283 285 286 286 287 288 289 289 286 285 285 285 284 284 284 284 284 283 283 282 281 281 281 281 281 281 281 281 280 280 280 281 281 282 282 281 280 279 280 280 280 280 280 281 281 281 281 280 280 279 279 279 279 280 279 279 279 280 279 277 272 276 278 277 277 278 279 279 280 281 282 283 283 283 283
284 284 284 284 284 284 284 284 283 283 284 285 285 286 286 287 288 287 286 286 285 285 284 284 283 283 283 282 281 280 280 280 281 283 282 281 280 279 279 280 280 280 280 282 283 282 280 279 280 280 281 281 282 281 281 281 281 280 280 280 280 278 277 275 274 277 276 279 279 276 273 273 276 275 275 278 278 277 278 279 280 282 282 283 283
282 282 283 283 283 282 282 282 282 282 283 284 284 285 285 286 286 285 285 285 285 284 283 283 282 282 282 282 281 280 279 279 281 283 283 282 279 279 279 278 279 279 279 280 282 282 281 281 281 282 282 283 283 283 283 282 281 280 279 277 276 277 275 273 274 274 275 277 277 276 274 272 275 275 275 276 276 276 277 278 279 281 282 282 282
281 282 282 282 282 281 281 281 281 281 282 283 284 284 284 285 285 285 285 285 285 285 284 283 283 282 282 282 281 280 279 279 282 283 284 282 279 279 278 278 277 277 278 279 280 280 282 281 282 282 282 283 283 283 283 282 282 281 278 276 277 277 275 274 273 274 275 275 275 277 273 272 274 275 273 275 276 276 276 277 279 279 280 280 281
281 282 281 281 281 281 281 281 281 281 281 282 283 283 284 284 284 285 285 285 284 284 284 283 282 281 281 281 281 281 280 280 282 283 284 282 279 278 279 278 277 276 277 278 278 278 279 279 280 280 281 282 281 281 281 282 282 281 280 279 278 276 274 274 273 272 271 272 275 277 272 272 273 274 274 272 271 275 277 278 278 278 278 278 278
Wind_Speed
10 10 9 10 8 8 7 7 7 6 6 6 6 6 5 5 5 5 4 4 4 4 3 3 2 2 2 3 2 3 3 2 3 2 2 3 3 4 8 7 6 7 7 7 7 6 6 6 6 6 7 8 7 7 7 7 7 7 7 7 7 7 7 8 8 8 8 8 8 8 8 9 9 10 11 11 11 11 11 12 12 13 13 13 13
10 10 10 10 8 8 8 7 7 6 6 6 6 6 6 5 5 4 4 4 4 4 3 3 2 2 2 2 2 3 3 3 3 3 3 3 4 5 6 7 7 7 7 7 7 7 7 6 6 6 6 6 6 7 7 7 7 7 7 7 7 7 7 8 7 7 8 8 8 8 8 8 8 9 10 10 11 11 12 12 12 13 13 13 13
10 11 10 9 9 9 8 7 7 7 7 6 5 5 5 5 5 5 5 5 4 4 3 4 3 2 2 2 2 2 3 3 3 3 3 3 4 4 4 7 8 8 7 7 8 7 7 7 6 6 6 5 6 7 6 6 5 6 6 7 7 7 7 7 7 7 7 7 7 7 7 8 8 8 9 10 10 11 11 12 12 13 12 13 13
11 10 10 10 10 9 9 8 8 7 7 6 6 5 5 4 4 4 4 4 4 4 3 4 4 3 3 3 2 3 3 3 3 3 3 3 4 4 4 4 7 8 8 7 8 8 8 9 9 8 6 6 6 6 6 5 6 6 6 5 6 6 7 6 6 6 6 8 7 7 7 8 8 9 9 9 10 10 11 12 13 13 13 13 13
10 11 10 9 9 10 9 8 8 7 7 7 7 5 5 5 4 4 4 3 4 4 3 3 4 3 3 3 3 3 3 4 4 4 4 3 3 4 4 4 5 6 9 9 8 8 8 8 8 8 7 7 7 6 6 4 6 6 6 5 6 5 6 6 6 6 7 7 7 7 7 8 8 8 9 9 9 9 10 10 11 11 12 13 13
10 10 10 9 9 9 9 9 7 8 7 7 7 6 6 6 6 5 5 5 5 4 5 4 4 3 4 4 3 4 4 4 4 4 4 4 3 3 4 4 4 4 5 9 10 9 8 8 8 8 8 7 7 6 6 6 6 6 5 5 6 6 5 7 7 6 7 7 7 8 8 8 9 9 9 9 8 8 9 9 10 10 11 12 12
10 10 10 9 9 10 9 9 8 8 7 7 7 6 6 7 7 7 6 5 5 5 5 5 5 5 4 4 4 4 4 4 4 4 4 4 3 4 4 4 4 5 5 5 7 9 9 8 8 7 7 7 7 7 6 6 6 5 5 5 5 5 6 6 6 6 7 7 7 8 9 9 9 9 9 9 9 9 10 10 10 10 10 11 11
11 11 10 10 10 9 9 8 9 8 7 8 7 8 7 7 7 7 8 7 6 6 4 4 4 4 3 3 3 4 4 4 5 5 4 4 4 4 4 4 4 4 4 4 4 6 8 8 8 8 8 7 6 6 6 6 6 5 5 5 5 6 6 6 6 6 7 7 8 9 9 10 9 9 8 9 10 11 10 10 10 10 10 10 10
12 12 10 10 9 9 9 9 9 9 8 8 8 7 8 7 7 7 7 7 7 7 5 4 4 3 3 3 3 4 4 4 5 4 3 4 4 4 4 4 4 5 3 4 4 4 7 8 8 9 9 7 6 6 6 6 6 6 6 5 6 6 6 6 6 7 7 7 8 9 9 9 9 9 9 10 10 11 10 11 11 11 11 10 9
13 11 10 9 9 9 8 10 9 9 8 8 8 7 7 8 8 7 6 7 7 7 7 5 3 3 3 2 2 3 3 4 4 4 4 4 4 5 4 4 5 3 4 3 3 3 4 6 7 9 9 7 7 7 6 6 6 6 6 6 6 6 6 6 7 7 7 7 8 8 8 9 9 10 10 10 10 11 11 12 12 12 12 11 11
13 12 11 10 9 9 8 11 10 9 8 9 8 8 8 8 9 8 5 5 6 6 6 5 4 3 2 2 1 1 2 2 3 4 3 4 4 4 4 4 4 4 4 3 3 3 3 2 2 3 4 7 6 7 6 6 7 6 6 5 5 7 7 7 7 7 7 7 8 8 8 9 9 9 9 10 10 10 11 12 12 13 13 13 13
13 13 12 11 11 10 10 10 10 9 10 10 9 9 11 11 9 10 9 4 2 4 5 6 5 4 3 2 1 1 1 1 2 2 3 4 4 5 4 4 4 4 3 3 3 2 2 2 2 2 3 5 6 6 6 7 8 7 6 5 5 6 7 7 7 7 7 7 7 7 8 8 8 8 8 8 9 10 10 11 12 12 13 13 14
14 13 13 12 11 10 10 10 10 10 10 11 11 11 10 9 8 8 10 9 6 5 6 6 7 4 3 2 2 1 1 1 2 3 3 4 4 5 4 4 4 4 3 3 2 2 2 2 2 2 2 2 4 5 5 6 8 7 6 4 5 5 5 6 7 7 7 7 7 8 8 8 8 8 8 8 8 9 9 10 10 10 11 12 12
13 14 13 13 12 11 11 11 11 10 10 9 9 9 10 9 9 7 6 9 7 8 8 9 6 8 7 4 3 3 3 2 3 3 3 4 4 5 5 5 5 4 4 3 3 2 2 2 1 1 1 1 1 2 3 3 4 6 5 5 5 4 5 5 6 6 7 8 9 9 9 9 8 8 7 7 8 9 9 10 10 10 10 11 11
13 13 12 13 12 11 11 11 12 11 10 10 10 11 11 12 12 10 9 6 5 7 9 11 7 8 6 5 5 5 4 4 5 5 5 4 4 5 5 5 5 4 4 4 3 3 2 1 2 1 1 1 2 2 3 3 4 3 5 6 6 4 4 5 6 7 7 8 9 9 9 9 9 9 8 9 9 10 10 9 9 10 10 10 11
13 13 11 11 13 12 11 11 12 12 12 12 12 13 11 11 11 10 10 10 8 8 9 10 5 11 7 8 5 6 4 8 8 7 7 5 5 6 5 5 5 4 4 4 3 2 2 2 2 2 1 1 2 2 2 3 3 2 3 5 6 6 6 6 6 7 8 8 8 8 8 8 8 8 8 9 9 9 9 10 10 10 10 11 11
11 13 13 13 13 12 13 13 13 13 12 12 12 14 13 13 13 11 13 12 10 8 9 11 9 6 4 6 2 4 7 3 10 6 6 6 7 6 6 5 6 5 4 4 3 2 2 2 2 2 2 2 2 2 3 4 4 4 4 1 3 6 6 6 7 7 7 8 7 6 6 7 8 8 8 9 9 9 10 10 10 10 10 11 11
11 12 12 12 13 13 13 12 12 12 12 12 11 10 12 13 14 12 13 12 11 10 10 9 8 8 6 4 2 2 5 6 8 5 5 7 5 7 6 7 5 5 4 4 4 3 3 2 3 2 2 2 2 2 3 3 3 3 2 3 3 5 5 6 7 8 9 9 9 7 7 7 8 9 9 9 10 10 10 10 10 10 10 11 11
13 12 13 13 12 12 13 12 12 12 12 11 12 13 12 12 11 12 12 11 11 11 12 11 7 7 6 6 4 3 4 8 7 5 4 6 6 7 7 7 6 6 5 5 5 4 3 3 3 3 3 3 3 3 3 3 1 2 3 2 2 4 5 5 6 8 10 11 10 9 9 9 10 10 10 10 11 11 11 11 11 11 11 12 12
13 13 13 13 12 12 12 12 12 12 11 12 12 11 10 9 11 12 10 11 13 12 11 11 14 12 10 8 6 3 4 5 3 7 5 6 7 6 6 8 7 7 6 6 6 5 4 3 2 3 3 3 4 3 3 4 4 4 4 1 2 3 4 4 5 7 10 11 11 11 10 10 10 10 10 11 11 12 12 12 12 12 12 13 13
13 12 12 13 12 12 12 12 12 12 10 11 10 11 13 13 13 12 12 11 11 11 10 11 13 11 10 9 7 7 5 3 2 2 6 7 6 9 8 6 6 8 7 7 6 5 4 3 3 3 4 4 4 4 4 4 4 4 5 3 2 2 2 2 3 7 9 9 10 10 10 10 10 9 10 11 11 11 11 12 13 13 13 13 14
12 13 12 14 13 13 12 13 13 12 10 13 11 11 12 12 13 13 13 13 11 11 12 10 11 10 11 9 10 7 5 5 5 6 2 3 6 7 8 10 9 9 9 8 7 6 4 4 4 4 5 5 5 5 5 5 4 5 5 5 3 2 2 1 3 7 9 9 9 9 10 10 9 10 10 10 11 11 11 12 12 13 13 14 14
11 12 13 14 14 14 13 13 12 10 10 13 13 13 12 11 11 12 12 15 12 12 10 9 9 10 10 10 12 12 12 10 10 9 9 7 5 5 6 9 8 7 7 7 7 6 6 5 5 5 6 5 5 5 5 5 5 4 6 6 5 4 3 2 4 8 9 9 9 9 9 9 10 11 11 11 11 11 11 12 12 13 13 14 14
10 10 12 14 13 13 13 12 12 12 13 12 12 12 11 11 11 12 12 13 10 10 12 11 10 10 10 10 10 9 10 9 8 9 10 9 9 8 7 5 1 2 4 5 5 5 6 5 5 6 6 6 6 6 6 5 5 8 6 6 4 4 2 3 6 9 10 10 9 9 9 10 10 10 10 11 11 11 12 12 13 13 14 14 14
10 11 12 14 13 13 13 13 13 13 13 13 12 12 11 11 12 13 13 14 14 13 12 13 13 12 11 10 9 9 10 8 7 8 8 7 8 8 4 6 6 6 4 5 5 4 4 5 5 6 6 6 6 5 5 5 5 8 5 7 6 5 2 3 6 9 10 10 10 9 9 10 10 10 10 11 11 11 12 12 13 13 14 14 15
11 13 12 13 12 13 13 14 13 13 13 13 12 11 11 11 12 13 14 12 11 13 13 12 11 11 8 9 10 9 9 8 7 6 8 8 8 10 5 3 1 4 4 5 4 4 5 5 6 6 6 6 6 6 6 5 5 9 7 4 7 4 3 5 9 11 11 10 10 10 10 10 10 10 10 10 11 12 12 12 13 14 14 15 15
11 10 11 11 13 13 13 13 13 13 12 12 10 11 11 10 10 11 10 10 11 11 12 12 11 12 11 10 9 9 8 7 6 7 7 8 8 8 8 7 4 4 4 5 4 8 4 6 6 6 7 6 6 6 6 6 6 11 7 5 4 6 5 7 10 11 11 11 11 11 11 10 10 11 10 11 11 12 13 13 14 14 15 15 16
8 9 11 11 12 12 12 13 12 12 11 12 11 10 10 11 10 9 11 6 9 12 12 11 12 13 14 11 9 10 9 7 7 7 7 7 7 7 8 9 9 6 6 6 6 7 8 6 5 6 7 7 6 6 6 6 6 11 8 5 5 5 7 7 9 11 11 11 11 11 11 11 11 11 11 11 11 12 12 13 13 14 14 15 16
8 8 9 10 11 12 12 13 13 13 13 12 12 12 10 11 11 11 12 10 11 12 12 12 13 12 12 13 12 10 10 8 7 7 7 6 7 6 8 10 10 10 6 9 9 8 8 9 7 8 8 7 7 6 7 7 8 9 7 6 5 5 5 6 8 10 11 11 12 12 12 12 11 11 11 11 11 12 13 13 13 14 14 15 15
7 5 8 10 10 12 11 12 12 13 13 12 12 13 11 11 12 12 11 10 11 11 11 12 12 11 12 10 11 11 8 8 9 8 7 8 7 7 7 8 8 11 10 9 8 9 7 8 7 6 8 8 7 7 7 7 9 9 6 5 5 5 4 6 9 11 12 12 12 12 12 12 12 11 11 11 12 12 13 13 14 14 15 16 16
8 7 8 9 10 10 12 12 12 13 13 13 13 13 13 13 12 12 11 11 11 13 12 11 11 10 12 13 11 11 8 8 8 8 7 8 8 6 6 6 5 7 9 9 8 4 5 9 8 5 9 10 8 7 6 6 8 8 6 5 6 3 4 7 9 11 12 12 13 13 12 12 12 12 12 12 12 13 14 15 15 15 16 16 17
7 7 9 10 11 11 12 12 13 13 13 13 13 13 13 14 13 12 12 13 14 14 12 11 9 11 13 13 13 12 8 8 8 8 9 8 7 7 7 6 6 5 5 7 10 5 2 4 9 7 9 10 10 9 8 6 6 10 6 5 4 3 5 4 6 10 12 13 13 13 13 12 12 13 13 13 14 14 15 15 16 16 16 16 16
7 8 10 11 11 11 12 12 13 13 13 13 12 13 13 14 13 13 13 14 16 13 12 12 11 11 13 13 13 12 9 11 9 9 9 9 8 7 6 5 5 5 6 8 9 5 2 1 5 7 8 10 8 9 9 8 7 7 7 5 4 4 3 4 5 8 12 13 14 13 13 13 13 13 13 13 14 15 16 16 16 16 16 16 16
8 9 10 9 10 11 11 12 12 13 13 14 13 13 13 14 13 8 11 12 13 14 12 13 12 10 10 10 10 8 9 10 8 10 10 10 10 10 8 8 7 7 6 8 8 8 6 5 5 5 6 8 6 9 9 8 7 6 6 4 3 4 3 4 5 6 10 13 14 14 14 13 13 13 13 13 14 15 16 16 16 16 16 16 17
8 8 9 9 10 11 11 11 11 12 12 13 12 13 13 14 14 12 11 12 13 12 12 13 13 10 10 10 10 10 11 12 11 7 7 9 9 10 10 8 9 8 7 7 6 8 7 7 6 7 7 7 6 8 8 6 4 4 4 4 4 3 4 5 6 6 9 12 15 14 14 13 13 13 13 14 15 15 16 16 16 16 16 17 18
9 8 9 10 9 10 10 10 11 11 12 12 11 12 14 14 12 12 11 13 12 11 14 14 12 11 13 12 12 11 12 12 11 10 9 8 7 6 8 8 9 8 8 7 5 4 4 6 7 7 7 7 6 4 5 4 4 4 4 3 4 5 5 6 7 8 8 12 14 14 14 14 14 14 14 14 15 16 16 16 16 16 17 18 19
8 8 8 9 10 10 10 11 11 12 12 12 12 12 12 11 12 10 10 10 9 10 11 15 17 17 11 12 12 12 12 13 12 12 10 12 9 8 7 6 7 5 5 6 5 3 4 6 5 4 5 5 4 5 6 5 5 5 5 5 5 5 6 6 6 7 11 15 16 15 14 13 14 14 14 15 16 16 16 16 17 17 18 19 20
9 8 8 8 9 11 11 12 12 12 12 12 13 13 12 11 11 11 10 10 10 10 8 12 16 15 18 12 12 13 14 15 14 12 9 12 9 9 9 7 5 5 6 6 5 5 4 3 6 5 6 6 6 5 6 6 5 5 5 6 6 6 6 6 7 7 6 6 5 5 6 8 9 10 12 13 15 16 17 17 18 19 19 20 22
10 9 8 9 8 10 11 10 11 12 12 13 12 12 12 12 12 13 12 13 12 10 12 12 12 13 13 11 13 14 16 16 13 12 11 11 10 13 10 9 9 8 8 8 7 8 7 6 5 5 5 5 5 5 6 6 5 5 5 4 5 6 6 7 6 6 6 6 8 9 9 10 13 12 13 15 17 18 18 19 19 21 21 22 23
9 9 9 8 7 7 9 10 10 10 11 11 11 11 10 10 11 12 12 13 14 14 13 15 16 16 16 15 13 14 15 14 14 11 12 11 9 11 10 9 11 11 10 9 9 8 7 7 6 7 6 6 5 4 4 6 5 6 7 5 5 4 4 5 5 6 5 4 5 4 5 7 8 10 12 14 18 19 20 20 21 23 25 25 25
7 8 8 8 9 8 8 10 9 8 9 10 9 9 10 11 10 11 13 13 14 14 14 15 16 16 16 16 16 15 18 20 20 17 17 17 11 10 10 11 12 9 9 8 9 9 8 7 6 5 6 6 7 7 8 9 10 8 6 6 5 5 4 5 5 6 6 5 5 5 6 5 6 6 6 8 9 11 13 16 18 24 25 26 26
8 8 8 8 8 9 9 9 10 9 9 7 10 15 13 9 9 9 9 11 13 13 13 14 15 16 16 14 14 20 20 21 22 23 19 15 14 9 11 11 12 9 9 9 10 11 10 10 9 9 8 9 10 11 10 9 7 5 6 7 7 5 5 6 6 6 5 5 5 6 6 5 6 7 7 9 10 10 9 10 11 13 16 20 21
8 8 8 8 8 8 9 9 9 8 6 6 14 14 15 19 13 10 10 11 12 14 14 14 14 14 14 15 12 14 17 18 19 22 16 20 19 13 11 14 14 13 11 10 10 11 11 11 10 9 9 8 10 10 9 8 8 9 8 7 6 6 6 5 4 3 5 5 5 6 7 6 6 8 8 10 11 10 10 11 16 19 21 23 24
7 7 8 8 8 8 8 9 9 8 8 11 14 14 16 18 18 13 10 10 10 13 13 14 13 12 12 12 12 9 13 15 12 15 18 20 22 20 18 17 18 18 21 18 13 8 8 9 9 10 8 9 10 10 10 10 10 9 8 8 8 8 7 7 6 5 1 5 4 6 8 7 8 10 10 11 10 9 10 14 19 20 22 24 25
7 6 8 8 8 8 8 9 9 9 8 10 12 15 16 18 19 19 10 11 11 11 14 14 14 13 11 11 10 9 9 17 14 13 14 15 19 21 20 19 19 22 22 19 15 11 13 9 9 9 11 9 10 10 10 10 9 10 9 8 8 8 7 6 7 6 6 5 5 7 9 8 8 9 10 10 9 9 10 15 21 22 24 25 25
6 7 7 7 8 8 8 8 9 8 9 9 12 14 14 17 19 18 13 13 12 13 14 14 13 14 14 12 10 9 8 11 12 13 13 12 12 12 12 11 12 16 20 21 21 10 4 9 11 12 9 8 7 8 9 10 11 9 9 8 8 8 9 8 7 6 6 4 6 6 8 9 9 9 11 10 9 9 10 15 20 21 23 25 25
7 7 7 8 7 7 8 7 8 8 7 11 13 14 15 17 19 18 12 13 11 10 12 13 13 13 13 11 11 10 10 11 11 12 12 12 12 14 14 12 11 12 14 15 14 12 9 6 6 8 9 9 7 8 9 9 9 7 7 7 8 6 6 6 7 9 9 9 9 7 8 5 5 7 9 9 9 10 9 14 20 23 25 26 26
7 7 6 6 7 7 8 7 8 8 8 10 13 14 15 16 19 13 11 11 11 11 11 10 11 11 9 9 8 8 9 10 14 19 14 10 14 15 16 11 11 12 13 13 13 11 8 8 8 8 7 8 9 9 9 9 8 6 5 4 4 6 7 6 8 9 10 8 9 9 8 7 7 9 10 8 9 10 10 11 16 22 24 26 25
10 9 8 7 6 7 8 8 8 8 8 10 12 13 15 18 14 10 11 10 12 8 8 8 9 10 9 9 10 9 9 9 15 21 22 16 14 16 15 13 10 10 10 10 15 15 13 13 12 11 13 14 14 14 14 15 10 8 6 7 9 9 8 8 9 9 8 7 7 8 7 7 7 8 9 8 9 11 11 11 11 17 24 25 23
11 10 9 8 7 6 7 7 7 8 8 10 12 13 14 16 14 10 10 11 11 10 10 10 9 9 12 16 14 10 9 9 17 22 25 18 16 16 15 13 11 10 9 9 9 10 16 15 16 15 15 15 15 16 15 15 15 12 10 10 9 9 9 10 8 6 4 5 6 6 4 7 5 6 8 8 9 11 12 11 10 10 14 17 20
10 10 9 9 9 7 5 6 9 9 8 9 13 14 15 15 13 10 11 11 15 12 10 8 9 9 9 11 17 14 10 10 20 23 25 20 15 16 12 11 12 12 11 12 12 11 12 11 11 12 12 14 13 12 12 17 17 15 11 8 8 9 9 8 6 4 5 6 5 6 5 5 4 6 5 7 5 5 7 7 7 6 9 10 10
Wind_Direction
190 188 186 190 187 181 180 182 181 179 179 179 176 172 169 163 160 160 158 154 149 145 139 135 144 132 131 128 137 124 126 133 127 124 130 134 123 59 12 32 59 68 81 88 91 88 99 108 107 102 105 93 86 86 82 79 78 74 74 80 84 80 74 67 62 62 60 56 53 49 47 44 42 42 42 41 38 36 36 34 32 31 29 26 24
189 187 186 187 183 179 183 185 184 180 182 182 181 175 168 163 160 157 154 153 154 142 151 141 134 134 140 140 138 143 140 144 145 145 137 130 122 113 36 31 50 72 70 81 83 82 83 94 106 111 105 95 94 94 86 83 80 82 78 79 83 77 72 70 66 67 64 61 56 53 52 52 49 46 44 42 40 38 36 34 31 28 25 23 21
189 186 185 183 180 180 188 184 185 183 185 182 175 176 165 165 164 162 163 161 155 149 163 149 150 147 141 151 149 148 148 147 148 144 140 133 131 122 96 51 45 49 73 82 81 84 84 84 94 95 91 88 91 94 92 87 85 79 79 79 79 78 76 71 67 65 62 62 58 56 58 59 58 55 50 46 42 39 35 32 30 27 25 23 20
189 184 185 182 182 183 186 185 189 180 184 177 170 166 159 142 139 141 146 156 147 155 165 162 162 159 154 155 161 161 159 157 153 152 138 133 137 139 129 106 60 45 42 75 85 83 83 82 77 79 83 82 81 92 90 90 82 75 71 74 76 75 73 68 67 59 58 60 61 60 61 61 62 58 55 51 47 43 37 32 29 25 23 21 18
191 186 183 182 180 179 185 187 185 178 177 167 157 153 145 145 143 147 148 149 153 155 161 173 163 158 165 167 166 167 163 166 157 153 147 148 144 139 134 127 114 77 47 39 73 83 85 81 79 77 72 76 77 82 91 90 78 75 73 69 66 66 68 72 64 57 56 60 61 60 57 57 56 54 49 46 47 42 38 35 28 22 19 16 12
192 186 185 184 181 183 184 183 183 172 165 160 168 168 162 158 156 162 162 172 172 169 174 178 169 161 172 167 181 168 169 169 163 156 156 151 147 140 141 146 140 127 97 58 50 72 80 82 81 74 71 68 74 86 84 79 75 74 75 80 73 62 62 59 58 57 58 58 58 54 51 49 46 43 39 36 35 36 38 38 34 29 23 17 13
191 182 187 188 184 186 186 183 172 168 169 174 172 169 165 166 163 168 165 180 180 174 186 182 170 171 171 173 177 168 174 168 161 156 160 147 145 143 146 144 143 135 136 121 79 59 66 71 73 73 69 69 70 73 80 78 75 73 77 77 69 65 60 60 62 59 57 56 55 52 48 43 38 33 31 29 29 29 29 32 33 31 26 19 12
188 186 188 192 189 187 184 176 164 170 174 171 174 171 168 168 171 170 166 181 177 179 190 179 172 168 165 177 166 176 175 168 165 163 154 158 149 149 152 143 151 137 136 131 112 76 62 65 65 62 59 58 65 68 76 77 74 77 75 74 75 66 62 61 61 62 60 59 53 49 44 39 34 32 28 28 27 23 21 21 23 25 26 22 17
192 192 193 189 189 186 182 170 168 175 174 173 179 175 168 168 169 178 182 175 179 178 181 179 168 159 163 171 170 180 178 172 171 161 158 160 153 152 148 140 121 136 146 128 128 117 74 70 69 58 48 50 56 67 70 66 62 66 74 73 77 74 72 73 70 65 64 60 52 46 43 37 33 28 27 24 20 15 14 13 12 14 16 16 14
193 191 196 190 190 187 178 166 172 178 175 175 182 174 174 175 169 176 180 175 181 180 181 173 150 158 158 170 172 190 176 173 167 162 175 163 161 160 154 147 151 153 132 130 129 127 130 105 95 77 49 45 54 64 68 60 50 50 66 78 79 87 79 79 75 69 65 57 50 45 42 38 34 30 25 17 13 9 9 9 7 7 8 8 5
191 188 194 188 190 189 177 172 177 180 174 177 177 173 175 183 174 165 172 181 183 182 177 156 142 133 138 136 169 188 178 168 172 187 182 176 164 158 155 158 150 149 141 144 139 133 129 140 143 127 83 48 53 55 65 61 41 46 53 74 89 89 87 84 79 70 58 53 45 45 43 39 35 28 22 16 11 8 8 7 3 1 3 4 0
190 189 193 189 190 190 182 171 182 180 178 180 179 181 180 177 178 164 164 162 199 159 145 146 135 121 114 113 116 161 163 179 202 200 198 177 168 171 169 156 156 148 146 146 137 133 132 134 132 133 125 94 62 54 66 59 32 41 48 68 93 100 94 84 78 63 56 50 47 43 40 34 30 26 23 16 11 8 3 2 360 357 358 359 357
190 188 194 192 194 186 177 176 182 184 186 191 184 180 178 175 167 166 166 168 181 176 163 156 146 140 129 137 147 159 140 245 210 204 202 189 180 186 170 170 159 157 157 143 136 143 151 137 134 129 122 141 133 96 73 63 40 39 59 67 87 96 98 91 76 61 52 46 40 35 31 25 19 21 17 15 10 5 1 0 355 355 356 357 353
189 190 193 191 190 185 180 177 180 187 192 189 178 168 167 172 163 162 182 180 178 176 167 162 185 182 169 169 174 176 192 227 223 209 205 195 193 187 179 177 167 160 158 152 153 163 157 151 130 121 124 140 130 144 144 138 76 27 55 54 73 95 102 89 69 57 49 41 30 26 20 16 9 7 9 7 4 1 360 354 349 348 353 352 351
191 191 192 194 190 183 182 178 183 185 183 185 180 178 181 179 177 174 167 189 181 166 178 200 177 186 174 154 191 181 185 222 220 221 202 198 197 191 189 178 171 173 174 173 174 166 154 144 139 135 142 153 156 155 133 101 71 23 44 42 24 76 90 78 56 50 44 34 25 15 10 7 3 359 1 359 359 357 352 344 346 349 349 347 345
196 193 194 193 190 185 179 181 186 187 188 185 183 186 179 182 183 184 166 166 192 180 196 208 216 163 175 208 188 198 197 211 200 198 195 198 203 199 191 186 177 182 185 190 180 175 157 142 150 150 154 168 171 166 153 119 135 121 52 17 3 53 48 66 49 44 33 25 15 7 2 358 355 353 352 354 353 351 345 343 343 348 346 343 340
203 202 200 196 192 188 185 185 185 189 191 190 186 188 181 182 180 178 181 181 180 179 191 206 223 241 202 149 133 212 231 133 166 185 176 203 212 213 201 197 191 193 199 186 180 180 175 164 166 150 169 179 180 173 156 152 164 134 129 69 34 65 39 43 45 41 28 14 7 357 354 352 350 345 347 350 350 346 344 343 341 345 343 340 338
210 209 208 203 198 194 189 186 189 188 194 196 188 179 183 182 184 182 185 196 176 172 183 204 217 230 253 291 332 229 195 143 164 195 164 213 211 209 213 209 208 204 208 190 191 197 191 177 170 181 170 191 180 183 164 158 154 158 139 84 63 90 70 38 28 21 10 2 358 353 349 349 346 341 344 348 349 346 340 339 340 340 339 336 334
210 210 209 210 207 199 196 194 192 192 192 193 191 189 185 184 176 187 191 185 180 188 183 184 195 246 238 243 258 241 285 145 197 129 176 187 216 209 216 213 213 219 217 211 196 202 190 186 176 185 181 188 186 187 182 147 122 79 64 43 70 85 68 48 27 11 358 352 350 348 346 344 341 341 345 347 347 342 339 339 337 334 333 333 331
209 209 209 209 210 208 203 199 196 196 191 199 196 188 180 181 184 190 188 188 191 193 183 175 183 206 203 217 231 256 276 300 273 201 208 174 189 201 221 210 213 219 222 215 203 206 204 186 185 189 194 184 187 189 181 164 169 162 160 143 101 105 82 53 23 3 353 347 343 343 339 336 336 338 342 344 343 339 337 335 333 331 330 328 326
211 213 209 211 210 212 207 205 201 198 193 200 201 190 186 181 182 188 193 191 197 201 190 187 192 194 167 209 211 212 212 251 297 292 233 219 189 180 190 188 217 226 215 211 206 202 202 197 184 195 198 186 187 187 185 176 175 171 144 158 128 108 89 49 3 353 347 340 335 332 329 328 329 336 340 339 337 335 332 330 327 326 325 324 322
205 209 208 208 212 212 212 210 209 203 193 200 198 189 192 193 189 189 189 188 196 200 203 197 194 199 184 177 185 186 200 212 225 213 250 246 242 187 180 174 197 214 197 196 195 196 201 200 199 199 199 190 187 182 190 183 177 172 153 160 163 134 130 236 342 344 339 332 326 323 321 322 326 331 335 333 332 329 326 325 323 322 320 319 317
203 209 207 203 208 209 212 210 212 209 200 201 202 197 196 193 190 192 192 193 195 197 204 208 188 201 185 193 193 187 189 191 195 196 198 198 213 190 179 190 199 178 180 178 178 190 198 201 205 194 194 190 185 185 184 185 167 147 137 176 169 171 195 248 332 336 328 321 318 314 313 315 321 327 329 328 326 324 321 321 319 318 317 315 315
204 208 209 206 207 208 207 206 209 210 210 209 208 200 195 191 190 194 200 203 203 195 203 205 190 204 194 202 206 200 205 203 193 184 196 206 197 206 185 163 204 193 122 161 176 191 201 210 202 194 187 186 185 185 178 176 163 142 180 171 182 189 208 298 324 322 315 312 307 306 306 312 318 321 322 322 322 321 320 319 317 315 314 312 312
205 207 210 203 205 207 203 204 208 210 210 207 209 200 195 193 194 194 198 197 200 198 199 205 197 200 198 204 206 206 211 212 198 191 202 207 196 215 146 158 195 176 155 169 179 191 206 208 193 193 183 188 177 182 178 181 172 171 209 156 205 176 219 290 304 304 304 301 299 297 302 307 314 317 319 320 319 320 318 315 312 311 311 311 311
205 208 206 201 203 209 208 211 212 210 207 206 205 203 198 199 198 199 200 201 199 199 203 201 202 203 198 199 206 213 212 210 205 190 196 197 200 210 148 162 248 176 129 186 169 179 197 207 194 185 184 182 177 181 181 179 163 151 194 189 173 191 223 274 292 300 301 298 294 297 302 308 312 314 315 316 317 316 313 311 310 311 310 311 311
212 209 201 200 203 205 208 209 209 212 208 204 202 201 201 205 208 208 206 204 202 200 207 199 203 199 203 207 205 211 213 210 196 207 205 203 197 193 164 171 195 222 191 182 177 217 173 169 178 185 185 180 180 180 181 181 162 147 164 196 194 181 240 264 288 298 297 295 296 300 305 307 310 312 314 315 315 314 311 310 309 310 311 312 311
217 203 199 197 199 201 205 208 207 207 208 207 204 204 201 205 212 209 209 196 204 203 210 205 212 204 205 206 207 213 209 204 198 209 208 206 202 192 180 188 193 205 202 215 204 220 177 163 179 198 186 185 181 183 175 170 169 151 175 208 211 202 211 254 283 292 291 291 296 300 304 306 307 308 310 308 306 305 303 302 302 302 304 306 307
220 203 201 201 203 202 205 208 208 207 206 205 202 203 202 205 213 211 212 204 208 211 210 211 214 207 210 203 209 212 207 197 196 207 207 203 210 204 192 197 200 223 197 211 209 198 182 192 179 188 192 189 181 179 172 190 163 162 192 207 214 238 239 257 282 288 289 291 295 298 299 299 299 299 299 300 298 295 294 293 293 296 298 300 303
216 195 203 203 206 203 208 209 209 206 207 204 200 200 198 207 211 213 213 205 208 214 212 213 212 206 209 205 208 217 204 187 204 200 202 204 206 204 204 205 204 214 220 215 216 191 167 188 196 164 179 187 184 180 180 191 151 176 192 214 228 238 241 268 284 285 286 289 291 292 291 292 291 290 290 291 290 288 287 289 291 294 298 301 305
218 210 204 207 205 204 208 211 209 207 206 207 202 202 201 208 209 212 206 201 206 212 214 208 214 205 207 208 207 216 202 191 194 195 201 201 205 198 206 204 207 216 217 226 234 159 148 172 188 178 169 179 180 175 174 186 162 186 201 224 231 229 264 273 274 277 277 279 282 282 282 282 284 284 282 283 284 284 286 290 294 297 301 304 306
224 213 209 212 209 207 208 209 210 209 207 206 200 202 202 210 207 207 205 199 208 212 210 205 205 206 209 210 208 208 196 184 196 196 199 203 199 198 200 196 201 206 198 218 228 194 172 168 168 163 167 171 177 177 179 182 166 181 217 222 221 221 257 260 255 260 266 270 273 275 276 278 279 279 279 279 282 285 287 290 295 299 302 304 304
224 219 217 215 213 211 208 208 208 207 204 205 202 201 206 210 210 208 202 197 202 209 203 204 198 199 208 210 210 203 182 187 198 190 195 194 191 203 194 188 197 185 186 208 214 182 117 78 156 163 165 165 176 185 180 185 186 195 205 222 218 235 253 264 265 255 254 261 265 270 272 272 274 276 278 278 282 284 287 292 297 300 301 303 305
230 227 224 218 214 212 211 211 210 210 208 204 201 200 205 207 207 199 202 199 200 208 199 207 194 193 196 202 204 182 175 190 186 192 190 186 192 195 194 193 196 185 190 189 210 202 164 158 165 157 165 181 180 187 189 189 189 185 193 198 206 220 238 255 259 257 244 248 257 264 267 268 272 276 279 282 282 285 289 293 294 295 299 303 306
243 231 228 222 217 217 216 214 211 213 211 210 207 205 210 208 207 202 195 200 201 201 202 205 196 183 188 200 203 185 198 203 208 191 174 185 185 192 190 187 194 186 183 200 189 204 173 168 162 164 179 185 195 181 190 195 182 180 197 216 216 215 218 236 250 252 244 245 253 261 268 271 273 276 277 278 280 282 285 286 291 296 301 304 304
258 239 232 232 224 217 219 215 214 214 214 215 212 211 213 212 212 210 203 207 206 201 206 207 194 181 198 200 205 177 166 194 198 191 184 178 177 188 184 185 187 181 179 186 213 197 175 143 176 176 175 169 195 167 154 168 183 201 208 219 209 220 229 232 244 254 252 252 259 269 275 277 277 275 274 276 277 279 282 288 295 299 301 301 300
253 247 237 235 237 228 224 219 215 215 213 210 210 211 211 211 212 210 209 210 214 214 215 217 213 205 200 203 201 177 182 198 201 195 181 179 178 173 180 171 181 164 146 178 186 172 169 168 146 168 161 175 170 165 172 179 200 209 216 220 226 226 235 240 247 255 262 262 265 269 271 273 275 276 276 277 278 282 289 295 297 298 299 299 297
272 250 242 228 226 234 231 228 225 223 220 218 217 216 212 208 211 212 214 214 217 216 219 225 226 220 220 211 200 184 190 199 202 193 173 184 169 179 173 161 157 138 155 166 171 174 165 157 155 152 183 183 180 189 181 179 194 206 206 208 209 218 222 235 236 237 240 246 252 256 262 267 266 276 280 284 289 293 295 296 297 298 298 294 290
295 280 257 240 229 228 233 229 230 228 225 222 221 219 217 214 215 218 219 221 223 221 222 219 217 220 220 216 209 199 200 203 196 185 178 180 186 191 179 162 153 159 168 173 175 181 181 171 172 173 171 193 190 186 176 179 204 219 219 210 216 203 208 218 234 225 225 241 247 254 263 273 281 283 286 292 292 291 293 296 297 295 291 287 284
307 290 277 258 248 233 236 236 232 229 228 226 224 219 215 209 210 217 219 222 224 226 225 222 221 220 221 218 212 208 208 206 199 180 170 184 177 185 182 169 169 168 172 170 170 179 181 187 185 175 184 180 189 205 165 168 193 216 215 214 225 222 218 217 234 258 254 260 279 283 270 271 270 274 280 281 280 281 284 287 286 281 277 277 276
311 299 288 282 271 258 247 244 241 227 226 229 225 218 213 210 206 214 218 220 222 224 224 223 222 223 221 219 215 212 213 214 211 208 200 194 173 179 181 172 174 170 165 165 169 175 184 183 185 175 173 187 194 184 193 197 201 204 180 187 220 237 255 266 263 256 265 283 293 295 290 291 293 293 293 290 285 286 280 274 272 269 268 269 270
316 311 305 295 282 271 264 253 246 244 234 224 223 222 220 220 210 209 212 218 221 223 225 225 226 225 224 221 216 213 215 213 213 212 202 184 190 178 172 169 178 168 167 163 173 179 176 182 188 175 182 196 192 196 196 200 192 180 177 184 201 214 228 253 265 261 255 252 268 276 275 275 274 275 269 269 273 272 269 265 258 260 263 265 267
318 317 312 304 297 283 269 259 249 238 233 228 235 227 223 221 223 218 212 218 219 224 226 224 225 223 224 225 224 211 213 214 211 209 196 195 196 193 185 187 182 169 162 170 180 173 178 187 179 184 194 187 191 188 189 180 181 186 186 187 195 203 214 221 245 247 202 201 229 252 259 250 257 264 264 263 266 265 258 255 257 259 261 264 269
322 316 311 304 302 295 285 275 263 255 250 250 238 230 225 222 221 225 221 219 217 222 225 225 226 223 221 220 218 209 204 207 193 197 202 199 199 200 198 195 200 205 192 179 165 169 181 173 178 195 181 189 180 178 180 175 180 179 184 186 196 200 208 216 226 232 170 156 221 248 260 258 254 257 260 257 257 254 253 256 259 260 262 264 268
315 311 309 308 300 297 291 284 277 268 264 255 245 233 227 225 222 222 231 224 223 225 226 226 226 223 218 211 210 206 199 200 196 198 199 201 199 200 202 202 204 206 212 215 198 169 165 167 175 174 191 180 173 188 176 174 168 170 176 187 196 202 211 217 220 221 223 209 236 249 255 252 247 252 254 252 250 250 254 257 257 258 259 261 264
310 306 304 301 298 297 291 288 283 282 275 279 262 247 235 228 227 222 231 232 229 230 227 225 223 223 220 216 209 205 187 187 195 194 191 189 189 195 199 203 207 211 213 213 212 232 226 186 173 180 181 171 177 162 163 161 166 172 177 186 189 202 210 218 221 234 238 226 236 254 262 253 250 250 249 251 249 254 255 256 257 258 259 259 262
307 306 306 302 293 290 290 283 282 275 269 274 276 265 252 241 234 229 233 236 236 230 229 227 226 224 221 215 212 208 192 187 190 181 174 171 182 196 202 204 200 201 204 208 208 206 199 205 191 176 165 170 160 157 158 167 169 165 171 178 191 204 220 236 246 242 245 243 237 233 249 243 241 251 250 257 261 258 255 254 253 254 255 256 258
298 291 290 286 288 291 291 289 286 281 276 270 268 266 261 257 249 240 239 238 238 236 228 222 221 222 214 202 199 197 185 189 190 184 176 164 188 196 200 198 196 199 205 207 201 193 182 184 184 168 163 160 162 156 157 161 163 159 156 172 204 214 212 212 228 237 241 234 215 225 248 254 250 258 262 261 264 264 257 253 252 248 248 250 252
306 302 297 287 285 287 287 288 286 282 282 274 270 267 264 259 251 243 244 245 244 241 228 221 219 220 213 201 206 199 186 189 187 186 187 174 191 196 199 195 193 195 201 195 193 185 176 177 174 164 161 165 169 165 166 166 162 164 168 190 208 199 199 215 233 230 231 219 216 217 241 265 254 257 272 268 266 264 257 251 249 245 243 245 249
301 297 300 296 281 273 270 275 278 282 281 277 274 270 264 261 254 247 243 242 239 232 233 220 220 221 221 217 213 207 192 186 184 189 193 184 194 197 198 192 186 187 189 177 172 184 180 176 174 179 182 181 178 180 180 179 178 181 187 203 196 191 211 219 231 224 241 237 233 221 232 246 265 271 282 281 273 256 248 247 235 235 241 249 252
287 293 299 297 295 282 248 250 274 272 271 274 272 269 263 259 255 250 249 249 252 243 232 227 217 221 216 208 207 209 196 181 189 196 198 194 197 198 191 180 188 190 183 168 166 169 174 172 178 180 185 185 188 190 196 196 196 199 204 207 197 195 210 220 224 243 272 263 224 187 204 257 258 273 289 305 284 260 223 217 201 241 257 256 256